Location: Newark
(54.1978°N, 18.3264°E)
Time: 02:13:05
(UTC+00:00)

OTV 5 (USA 277) - Pass Details

Date: 29 August 2019
Orbit: 295 x 339 km, 54.5° (Epoch: 08 September)

Event Time Altitude Azimuth Distance (km) Brightness Sun altitude
Rises 20:42:41 0° 276° (W) 1,995 ? -21.3°
Reaches altitude 10° 20:44:38 10° 277° (W) 1,168 ? -21.5°
Enters shadow 20:45:20 17° 278° (W) 875 ? -21.5°
